| time (UTC) | temp F | wind direction | speed MPH | gust MPH | rain 1hr in | rain 24hr in | rain mn in | humidity % | barometer mb |
| 20260504033033 | 50 | 290 | 1.0 | 8.0 | 0.00 | 0.07 | 0.00 | 72 | 1018.4 |
| 20260504032513 | 50 | 266 | 1.0 | 8.0 | 0.00 | 0.07 | 0.00 | 71 | 1018.5 |
| 20260504032011 | 50 | 313 | 3.0 | 7.0 | 0.00 | 0.07 | 0.00 | 72 | 1018.4 |
| 20260504031530 | 49 | 290 | 2.0 | 6.0 | 0.00 | 0.07 | 0.00 | 72 | 1018.4 |
| 20260504031009 | 48 | 243 | 1.0 | 4.0 | 0.00 | 0.07 | 0.00 | 67 | 1018.4 |
| 20260504030511 | 48 | 0 | 1.0 | 4.0 | 0.00 | 0.07 | 0.00 | 63 | 1018.5 |
| 20260504030042 | 47 | 271 | 0.0 | 3.0 | 0.00 | 0.07 | 0.00 | 64 | 1018.5 |
| 20260504025512 | 48 | 0 | 1.0 | 3.0 | 0.00 | 0.07 | 0.00 | 65 | 1018.5 |
| 20260504025012 | 48 | 226 | 1.0 | 4.0 | 0.00 | 0.07 | 0.00 | 68 | 1018.5 |
| 20260504024530 | 49 | 252 | 1.0 | 11.0 | 0.00 | 0.07 | 0.00 | 68 | 1018.6 |
| 20260504024012 | 49 | 261 | 1.0 | 11.0 | 0.00 | 0.07 | 0.00 | 70 | 1018.6 |
| 20260504023512 | 49 | 240 | 3.0 | 11.0 | 0.00 | 0.07 | 0.00 | 72 | 1018.6 |
| 20260504023031 | 48 | 300 | 3.0 | 11.0 | 0.00 | 0.07 | 0.00 | 74 | 1018.7 |
| 20260504022512 | 46 | 305 | 1.0 | 9.0 | 0.00 | 0.07 | 0.00 | 73 | 1018.7 |
| 20260504022011 | 45 | 227 | 1.0 | 3.0 | 0.00 | 0.07 | 0.00 | 70 | 1018.6 |
| 20260504021530 | 45 | 222 | 1.0 | 3.0 | 0.00 | 0.07 | 0.00 | 70 | 1018.7 |
| 20260504021012 | 45 | 236 | 1.0 | 3.0 | 0.00 | 0.07 | 0.00 | 70 | 1018.6 |
| 20260504020509 | 45 | 208 | 1.0 | 4.0 | 0.00 | 0.07 | 0.00 | 69 | 1018.7 |
| 20260504020032 | 46 | 0 | 0.0 | 4.0 | 0.00 | 0.07 | 0.00 | 67 | 1018.7 |
| 20260504015509 | 47 | 234 | 2.0 | 5.0 | 0.00 | 0.07 | 0.00 | 66 | 1018.7 |
| 20260504015010 | 48 | 221 | 0.0 | 5.0 | 0.00 | 0.07 | 0.00 | 66 | 1018.8 |
| 20260504014540 | 49 | 303 | 1.0 | 7.0 | 0.00 | 0.07 | 0.00 | 68 | 1018.7 |
| 20260504014013 | 49 | 312 | 0.0 | 7.0 | 0.00 | 0.07 | 0.00 | 67 | 1018.7 |
| 20260504013512 | 48 | 325 | 1.0 | 8.0 | 0.00 | 0.07 | 0.00 | 67 | 1018.7 |
| 20260504013033 | 48 | 252 | 1.0 | 8.0 | 0.00 | 0.07 | 0.00 | 67 | 1018.6 |
| 20260504012514 | 48 | 262 | 1.0 | 6.0 | 0.00 | 0.07 | 0.00 | 67 | 1018.6 |
| 20260504012013 | 47 | 221 | 1.0 | 6.0 | 0.00 | 0.07 | 0.00 | 68 | 1018.6 |
| 20260504011530 | 46 | 293 | 0.0 | 6.0 | 0.00 | 0.07 | 0.00 | 69 | 1018.6 |
| 20260504011015 | 46 | 242 | 1.0 | 3.0 | 0.00 | 0.07 | 0.00 | 68 | 1018.7 |
| 20260504010511 | 45 | 226 | 1.0 | 2.0 | 0.00 | 0.07 | 0.00 | 69 | 1018.6 |
| 20260504010030 | 45 | 217 | 1.0 | 2.0 | 0.00 | 0.07 | 0.00 | 68 | 1018.5 |
| 20260504005512 | 45 | 221 | 1.0 | 2.0 | 0.00 | 0.07 | 0.00 | 68 | 1018.6 |
| 20260504005011 | 45 | 210 | 1.0 | 2.0 | 0.00 | 0.07 | 0.00 | 67 | 1018.6 |
| 20260504004532 | 45 | 195 | 0.0 | 3.0 | 0.00 | 0.07 | 0.00 | 68 | 1018.6 |
| 20260504004012 | 45 | 210 | 1.0 | 3.0 | 0.00 | 0.07 | 0.00 | 69 | 1018.6 |
| 20260504003512 | 46 | 230 | 1.0 | 4.0 | 0.00 | 0.07 | 0.00 | 68 | 1018.6 |
| 20260504003035 | 46 | 221 | 2.0 | 4.0 | 0.00 | 0.07 | 0.00 | 67 | 1018.6 |
| 20260504002513 | 46 | 229 | 1.0 | 4.0 | 0.00 | 0.07 | 0.00 | 67 | 1018.6 |
| 20260504002011 | 46 | 212 | 2.0 | 4.0 | 0.00 | 0.07 | 0.00 | 67 | 1018.7 |
| 20260504001530 | 46 | 263 | 1.0 | 3.0 | 0.00 | 0.07 | 0.00 | 69 | 1018.5 |
| 20260504001009 | 46 | 239 | 2.0 | 3.0 | 0.00 | 0.07 | 0.00 | 70 | 1018.6 |
| 20260504000507 | 46 | 201 | 1.0 | 3.0 | 0.00 | 0.07 | 0.00 | 71 | 1018.6 |
| 20260504000030 | 46 | 193 | 1.0 | 3.0 | 0.00 | 0.07 | 0.00 | 71 | 1018.6 |
| 20260503235512 | 46 | 219 | 2.0 | 3.0 | 0.00 | 0.07 | 0.00 | 71 | 1018.7 |
| 20260503235011 | 45 | 235 | 1.0 | 4.0 | 0.00 | 0.07 | 0.00 | 72 | 1018.7 |
| 20260503234538 | 45 | 233 | 2.0 | 4.0 | 0.00 | 0.07 | 0.00 | 72 | 1018.8 |
| 20260503234011 | 45 | 232 | 2.0 | 4.0 | 0.00 | 0.07 | 0.00 | 72 | 1018.8 |
| 20260503233507 | 45 | 198 | 2.0 | 4.0 | 0.00 | 0.07 | 0.00 | 73 | 1018.9 |
| 20260503233030 | 45 | 213 | 2.0 | 4.0 | 0.00 | 0.07 | 0.00 | 73 | 1018.8 |
| 20260503232511 | 45 | 128 | 2.0 | 4.0 | 0.00 | 0.07 | 0.00 | 74 | 1018.9 |
| 20260503232010 | 45 | 224 | 2.0 | 4.0 | 0.00 | 0.07 | 0.00 | 75 | 1018.9 |
| 20260503231533 | 45 | 214 | 1.0 | 3.0 | 0.00 | 0.07 | 0.00 | 76 | 1019.0 |
| 20260503231014 | 45 | 212 | 0.0 | 1.0 | 0.00 | 0.07 | 0.00 | 75 | 1019.0 |
| 20260503230511 | 46 | 0 | 0.0 | 2.0 | 0.00 | 0.07 | 0.00 | 75 | 1018.9 |
| 20260503230030 | 46 | 156 | 1.0 | 2.0 | 0.00 | 0.07 | 0.00 | 75 | 1018.9 |
| 20260503225510 | 46 | 167 | 1.0 | 2.0 | 0.00 | 0.07 | 0.00 | 75 | 1018.9 |
| 20260503225010 | 46 | 223 | 0.0 | 3.0 | 0.00 | 0.07 | 0.00 | 74 | 1019.1 |
| 20260503224529 | 46 | 225 | 1.0 | 3.0 | 0.00 | 0.07 | 0.00 | 74 | 1019.1 |
| 20260503224009 | 45 | 211 | 1.0 | 3.0 | 0.00 | 0.07 | 0.00 | 75 | 1019.1 |
| 20260503223511 | 45 | 0 | 1.0 | 3.0 | 0.00 | 0.07 | 0.00 | 74 | 1019.1 |
| 20260503223030 | 45 | 207 | 0.0 | 2.0 | 0.00 | 0.07 | 0.00 | 74 | 1019.0 |
| 20260503222508 | 45 | 220 | 1.0 | 2.0 | 0.00 | 0.07 | 0.00 | 74 | 1019.1 |
| 20260503222010 | 45 | 214 | 1.0 | 2.0 | 0.00 | 0.07 | 0.00 | 73 | 1019.1 |
| 20260503221534 | 45 | 230 | 1.0 | 3.0 | 0.00 | 0.07 | 0.00 | 72 | 1019.1 |
| 20260503221012 | 45 | 229 | 1.0 | 3.0 | 0.00 | 0.07 | 0.00 | 72 | 1019.1 |
| 20260503220511 | 45 | 212 | 0.0 | 3.0 | 0.00 | 0.07 | 0.00 | 71 | 1019.2 |
| 20260503220029 | 45 | 217 | 1.0 | 3.0 | 0.00 | 0.07 | 0.00 | 71 | 1019.2 |
| 20260503215512 | 45 | 206 | 1.0 | 4.0 | 0.00 | 0.07 | 0.00 | 71 | 1019.1 |
| 20260503215011 | 46 | 235 | 1.0 | 5.0 | 0.00 | 0.07 | 0.00 | 71 | 1019.2 |
| 20260503214530 | 45 | 229 | 2.0 | 5.0 | 0.00 | 0.07 | 0.00 | 70 | 1019.2 |
| 20260503214011 | 45 | 184 | 2.0 | 5.0 | 0.00 | 0.07 | 0.00 | 71 | 1019.1 |
| 20260503213509 | 45 | 200 | 2.0 | 4.0 | 0.00 | 0.07 | 0.00 | 71 | 1019.2 |
| 20260503213057 | 46 | 217 | 1.0 | 3.0 | 0.00 | 0.07 | 0.00 | 70 | 1019.2 |
| 20260503212512 | 46 | 195 | 1.0 | 3.0 | 0.00 | 0.07 | 0.00 | 69 | 1019.2 |
| 20260503212012 | 46 | 205 | 0.0 | 3.0 | 0.00 | 0.07 | 0.00 | 68 | 1019.3 |
| 20260503211531 | 46 | 256 | 0.0 | 3.0 | 0.00 | 0.07 | 0.00 | 68 | 1019.2 |
| 20260503211011 | 46 | 234 | 1.0 | 3.0 | 0.00 | 0.07 | 0.00 | 68 | 1019.3 |
| 20260503210514 | 47 | 227 | 1.0 | 2.0 | 0.00 | 0.07 | 0.00 | 67 | 1019.4 |
| 20260503210031 | 47 | 0 | 0.0 | 2.0 | 0.00 | 0.07 | 0.00 | 67 | 1019.3 |
| 20260503205514 | 48 | 233 | 0.0 | 1.0 | 0.00 | 0.07 | 0.07 | 66 | 1019.3 |
| 20260503205012 | 48 | 0 | 0.0 | 1.0 | 0.00 | 0.07 | 0.07 | 67 | 1019.3 |
| 20260503204545 | 48 | 210 | 0.0 | 5.0 | 0.00 | 0.07 | 0.07 | 65 | 1019.3 |
| 20260503204012 | 48 | 0 | 0.0 | 5.0 | 0.00 | 0.07 | 0.07 | 64 | 1019.2 |
| 20260503203510 | 48 | 233 | 1.0 | 4.0 | 0.00 | 0.07 | 0.07 | 63 | 1019.3 |
| 20260503203031 | 48 | 216 | 2.0 | 4.0 | 0.00 | 0.07 | 0.07 | 63 | 1019.2 |
| 20260503202511 | 48 | 177 | 2.0 | 4.0 | 0.00 | 0.07 | 0.07 | 63 | 1019.2 |
| 20260503202015 | 49 | 184 | 2.0 | 3.0 | 0.00 | 0.07 | 0.07 | 63 | 1019.2 |
| 20260503201529 | 49 | 236 | 1.0 | 3.0 | 0.00 | 0.07 | 0.07 | 63 | 1019.3 |
| 20260503201010 | 49 | 165 | 2.0 | 5.0 | 0.00 | 0.07 | 0.07 | 63 | 1019.2 |
| 20260503200511 | 49 | 240 | 2.0 | 5.0 | 0.00 | 0.07 | 0.07 | 63 | 1019.3 |
| 20260503200033 | 49 | 217 | 1.0 | 4.0 | 0.00 | 0.07 | 0.07 | 62 | 1019.1 |
| 20260503195511 | 49 | 167 | 1.0 | 4.0 | 0.00 | 0.07 | 0.07 | 63 | 1019.1 |
| 20260503195013 | 49 | 230 | 2.0 | 6.0 | 0.00 | 0.07 | 0.07 | 63 | 1019.1 |
| 20260503194532 | 49 | 153 | 2.0 | 6.0 | 0.00 | 0.07 | 0.07 | 63 | 1019.2 |
| 20260503194010 | 49 | 248 | 2.0 | 6.0 | 0.00 | 0.07 | 0.07 | 62 | 1019.0 |
| 20260503193510 | 49 | 174 | 2.0 | 5.0 | 0.00 | 0.07 | 0.07 | 62 | 1019.1 |
| 20260503193039 | 49 | 199 | 2.0 | 5.0 | 0.00 | 0.07 | 0.07 | 63 | 1019.2 |
| 20260503192511 | 49 | 181 | 1.0 | 4.0 | 0.00 | 0.07 | 0.07 | 62 | 1019.1 |
| 20260503192015 | 49 | 213 | 2.0 | 4.0 | 0.00 | 0.07 | 0.07 | 63 | 1019.1 |
| 20260503191529 | 49 | 203 | 2.0 | 4.0 | 0.00 | 0.07 | 0.07 | 64 | 1019.1 |
| 20260503191013 | 48 | 180 | 2.0 | 4.0 | 0.00 | 0.07 | 0.07 | 66 | 1019.2 |
| 20260503190514 | 48 | 205 | 2.0 | 5.0 | 0.00 | 0.07 | 0.07 | 65 | 1019.2 |
| 20260503190029 | 49 | 171 | 3.0 | 6.0 | 0.00 | 0.07 | 0.07 | 65 | 1019.1 |
| 20260503185513 | 49 | 203 | 2.0 | 6.0 | 0.00 | 0.07 | 0.07 | 65 | 1019.0 |
| 20260503185012 | 49 | 198 | 2.0 | 4.0 | 0.00 | 0.07 | 0.07 | 65 | 1019.0 |
| 20260503184538 | 49 | 207 | 2.0 | 5.0 | 0.00 | 0.07 | 0.07 | 65 | 1018.9 |
| 20260503184012 | 49 | 161 | 2.0 | 6.0 | 0.00 | 0.07 | 0.07 | 66 | 1018.9 |
| 20260503183509 | 49 | 170 | 3.0 | 6.0 | 0.00 | 0.07 | 0.07 | 66 | 1018.9 |
| 20260503183029 | 49 | 212 | 2.0 | 6.0 | 0.00 | 0.07 | 0.07 | 65 | 1018.7 |
| 20260503182537 | 49 | 154 | 2.0 | 5.0 | 0.00 | 0.07 | 0.07 | 66 | 1018.7 |
| 20260503182014 | 49 | 164 | 2.0 | 5.0 | 0.00 | 0.07 | 0.07 | 66 | 1018.8 |
| 20260503181528 | 49 | 188 | 2.0 | 5.0 | 0.00 | 0.07 | 0.07 | 67 | 1018.8 |
| 20260503181013 | 49 | 199 | 2.0 | 6.0 | 0.00 | 0.07 | 0.07 | 68 | 1018.7 |
| 20260503180512 | 49 | 204 | 2.0 | 6.0 | 0.00 | 0.07 | 0.07 | 68 | 1018.6 |
| 20260503180040 | 49 | 188 | 3.0 | 5.0 | 0.00 | 0.07 | 0.07 | 68 | 1018.5 |
| 20260503175511 | 49 | 231 | 3.0 | 5.0 | 0.00 | 0.07 | 0.07 | 68 | 1018.4 |
| 20260503175013 | 49 | 198 | 3.0 | 5.0 | 0.00 | 0.07 | 0.07 | 67 | 1018.5 |
| 20260503174529 | 49 | 214 | 2.0 | 6.0 | 0.00 | 0.07 | 0.07 | 67 | 1018.6 |
| 20260503174012 | 50 | 171 | 2.0 | 6.0 | 0.00 | 0.07 | 0.07 | 67 | 1018.6 |
| 20260503173510 | 50 | 200 | 3.0 | 5.0 | 0.00 | 0.07 | 0.07 | 67 | 1018.5 |
| 20260503173046 | 50 | 203 | 3.0 | 5.0 | 0.00 | 0.07 | 0.07 | 67 | 1018.5 |
| 20260503172514 | 50 | 162 | 2.0 | 4.0 | 0.00 | 0.07 | 0.07 | 66 | 1018.5 |
| 20260503172011 | 51 | 208 | 1.0 | 3.0 | 0.00 | 0.07 | 0.07 | 66 | 1018.4 |
| 20260503171528 | 51 | 203 | 1.0 | 3.0 | 0.00 | 0.07 | 0.07 | 65 | 1018.4 |
| 20260503171012 | 51 | 216 | 2.0 | 3.0 | 0.00 | 0.07 | 0.07 | 65 | 1018.3 |
| 20260503170511 | 52 | 193 | 2.0 | 3.0 | 0.00 | 0.07 | 0.07 | 63 | 1018.2 |
| 20260503150508 | 58 | 108 | 4.0 | 11.0 | 0.00 | 0.07 | 0.07 | 51 | 1017.3 |
| 20260503131009 | 55 | 259 | 2.0 | 10.0 | 0.00 | 0.07 | 0.07 | 72 | 1017.6 |
| 20260503130509 | 54 | 222 | 4.0 | 10.0 | 0.02 | 0.07 | 0.07 | 70 | 1017.8 |
| 20260503110509 | 54 | 146 | 9.0 | 17.0 | 0.00 | 0.00 | 0.00 | 69 | 1017.3 |
| 20260503090507 | 59 | 77 | 6.0 | 15.0 | 0.00 | 0.00 | 0.00 | 60 | 1016.0 |
| 20260503081527 | 59 | 113 | 3.0 | 6.0 | 0.00 | 0.00 | 0.00 | 54 | 1015.9 |
| 20260503081012 | 59 | 36 | 3.0 | 6.0 | 0.00 | 0.00 | 0.00 | 52 | 1015.9 |
| 20260503080512 | 59 | 106 | 3.0 | 6.0 | 0.00 | 0.00 | 0.00 | 52 | 1015.8 |
| 20260503072512 | 60 | 41 | 2.0 | 5.0 | 0.00 | 0.00 | 0.00 | 54 | 1015.7 |
| 20260503072011 | 60 | 73 | 1.0 | 5.0 | 0.00 | 0.00 | 0.00 | 57 | 1015.7 |
| 20260503071527 | 60 | 56 | 2.0 | 6.0 | 0.00 | 0.00 | 0.00 | 55 | 1015.7 |
| 20260503071010 | 60 | 46 | 2.0 | 6.0 | 0.00 | 0.00 | 0.00 | 56 | 1015.7 |
| 20260503070512 | 60 | 41 | 2.0 | 6.0 | 0.00 | 0.00 | 0.00 | 55 | 1015.6 |
| 20260503055011 | 58 | 38 | 2.0 | 4.0 | 0.00 | 0.00 | 0.00 | 60 | 1015.9 |
| 20260503054536 | 58 | 49 | 1.0 | 4.0 | 0.00 | 0.00 | 0.00 | 59 | 1015.9 |
| 20260503054011 | 57 | 0 | 1.0 | 4.0 | 0.00 | 0.00 | 0.00 | 62 | 1015.8 |
| 20260503053512 | 56 | 256 | 1.0 | 3.0 | 0.00 | 0.00 | 0.00 | 62 | 1015.9 |
| 20260503053033 | 56 | 104 | 0.0 | 7.0 | 0.00 | 0.00 | 0.00 | 61 | 1015.9 |
| 20260503052516 | 56 | 246 | 3.0 | 7.0 | 0.00 | 0.00 | 0.00 | 62 | 1015.9 |
| 20260503052012 | 55 | 153 | 0.0 | 3.0 | 0.00 | 0.00 | 0.00 | 64 | 1015.9 |
| 20260503051526 | 55 | 325 | 1.0 | 3.0 | 0.00 | 0.00 | 0.00 | 64 | 1015.9 |
| 20260503051010 | 54 | 314 | 1.0 | 4.0 | 0.00 | 0.00 | 0.00 | 66 | 1015.9 |
| 20260503050511 | 53 | 297 | 0.0 | 4.0 | 0.00 | 0.00 | 0.00 | 66 | 1015.9 |
| 20260503050030 | 53 | 122 | 0.0 | 1.0 | 0.00 | 0.00 | 0.00 | 63 | 1015.9 |
| 20260503045509 | 53 | 0 | 0.0 | 1.0 | 0.00 | 0.00 | 0.00 | 62 | 1015.9 |
| 20260503045010 | 53 | 122 | 0.0 | 1.0 | 0.00 | 0.00 | 0.00 | 64 | 1015.9 |
| 20260503044530 | 52 | 0 | 0.0 | 2.0 | 0.00 | 0.00 | 0.00 | 65 | 1015.8 |
| 20260503044008 | 51 | 0 | 0.0 | 2.0 | 0.00 | 0.00 | 0.00 | 66 | 1015.9 |
| 20260503043512 | 51 | 225 | 0.0 | 1.0 | 0.00 | 0.00 | 0.00 | 66 | 1015.8 |
| 20260503043029 | 50 | 164 | 0.0 | 2.0 | 0.00 | 0.00 | 0.00 | 68 | 1015.9 |
| 20260503042512 | 48 | 159 | 0.0 | 2.0 | 0.00 | 0.00 | 0.00 | 71 | 1015.9 |
| 20260503042011 | 46 | 0 | 0.0 | 2.0 | 0.00 | 0.00 | 0.00 | 74 | 1015.9 |
| 20260503041529 | 45 | 163 | 0.0 | 4.0 | 0.00 | 0.00 | 0.00 | 74 | 1015.9 |
| 20260503041015 | 45 | 212 | 1.0 | 4.0 | 0.00 | 0.00 | 0.00 | 74 | 1015.8 |
| 20260503040511 | 45 | 236 | 1.0 | 3.0 | 0.00 | 0.00 | 0.00 | 74 | 1015.7 |
| 20260503040030 | 45 | 219 | 2.0 | 3.0 | 0.00 | 0.00 | 0.00 | 74 | 1015.7 |
| 20260503035512 | 46 | 213 | 2.0 | 3.0 | 0.00 | 0.00 | 0.00 | 73 | 1015.8 |
| 20260503035010 | 46 | 204 | 1.0 | 3.0 | 0.00 | 0.00 | 0.00 | 73 | 1015.8 |
| 20260503034544 | 46 | 224 | 1.0 | 3.0 | 0.00 | 0.00 | 0.00 | 74 | 1015.9 |
| 20260503034015 | 47 | 210 | 2.0 | 3.0 | 0.00 | 0.00 | 0.00 | 74 | 1015.7 |
| 20260503033510 | 47 | 221 | 1.0 | 3.0 | 0.00 | 0.00 | 0.00 | 74 | 1015.8 |